World > North America > United States > Indiana

Winamac, Indiana Regional Weather

Lat: 41.05N, Lon: 86.6W
Wx Zone: INZ013
Warning FLW WEATHER ALERT - (More Info. Click Here) Warning
Feedback

Winamac, IN Regional Weather

Expires:201908212300;;003099
ASUS43 KIND 212209
RWRIN 

WEATHER ROUNDUP FOR INDIANA
NATIONAL WEATHER SERVICE INDIANAPOLIS IN
600 PM EDT WED AUG 21 2019

NOTE: "FAIR" INDICATES FEW OR NO CLOUDS BELOW 12,000 FEET WITH NO
SIGNIFICANT WEATHER AND/OR OBSTRUCTIONS TO VISIBILITY.

* - STATION DOES NOT REPORT WEATHER SUCH AS PRECIPITATION OR FOG.

+ - STATION NOT QUALITY CONTROLLED BY THE NATIONAL WEATHER SERVICE.
    USE DATA WITH CAUTION...ESPECIALLY DEWPOINT AND RELATIVE
    HUMIDITY OBSERVATIONS.


INZ001>003-010>013-019-020-212300-
NORTHWEST INDIANA
  
CITY           SKY/WX    TMP DP  RH WIND       PRES   REMARKS
GARY /AIRPORT/ CLOUDY    82  68  61 W17G29    29.95F                  
KNOX *+        FAIR      81  68  65 W10       29.95S                  
LA PORTE +     FAIR      82  71  69 W10       29.96F                  
MICHIGAN CITY+ FAIR     N/A N/A N/A W10G17    29.96S                  
MONTICELLO +   PTSUNNY   84  69  60 W7        29.96F                  
RENSSELAER +   FAIR      79  70  73 CALM      29.96F                  
VALPARAISO     FAIR      83  68  60 W13       29.96S                  

$$


SKY/WX - Weather  TMP - Temperature  DP - Dew Point  RH - Relative Humidity
WIND - Wind Direction/Speed PRES - Barometric Pressure VSB - Visibility
WCI - Wind Chill Index E13G22 Wind - East Wind 13 mph/Gusts of 22 mph